sat.trackr.live / text

‹ back to catalog

STARLINK-36613

NORAD 67578 · 2026-016T

PAYLOAD ACTIVE UNKNOWN

§ Identity

Operator
Country
US
Launch date
2026-01-25
Launch site
AFWTR
Launch vehicle
Mass (kg)
RCS (m²)

Purposes: comms

External: N2YO · Heavens-Above · Gunter

§ Orbital elements

Epoch: 2026-05-25T02:43:43.442400Z

Period
93.91 min
Inclination
97.2852°
Eccentricity
0.0000498
Mean motion
15.33418688 rev/d
Perigee alt
465.3 km
Apogee alt
466.0 km
Semi-major
6,843.8 km
B*
7.6141e-4
RAAN
205.4070°
Arg perigee
93.8476°
Mean anomaly
266.2824°
Rev number
1,857

§ Raw data

STARLINK-366131 67578U 26016T   26145.11369725  .00024565  00000+0  76141-3 0  99932 67578  97.2852 205.4070 0000498  93.8476 266.2824 15.33418688 18572

JSON: /api/v1/satellites/67578 · /tle

For live sub-satellite position, see the globe view (requires WebGL).

§ Visibility from observer

Set your observer location to see the next 7 days of passes ≥ 10°. The values pass through the URL so the page stays shareable.

No JS? Fill the form by hand. The geolocation button needs JavaScript.